Weather History for PATC - May, 2013

Change the Weather History Date:

Monday, May 27, 2013

  Actual Average Record
Temperature  
Mean Temperature 34 °F -  
Max Temperature 37 °F 35 °F 51 °F (2015)
Min Temperature 32 °F 27 °F 21 °F (1999)
Degree Days  
Heating Degree Days 31    
Moisture  
Dew Point 33 °F    
Average Humidity 95    
Maximum Humidity 100    
Minimum Humidity 85    
Precipitation  
Precipitation 0.00 in - - ()
Sea Level Pressure  
Sea Level Pressure 29.97 in    
Wind  
Wind Speed 24 mph (NNE)    
Max Wind Speed 26 mph    
Max Gust Speed -    
Visibility 10 miles    
Events Rain    
Averages and records for this station are not official NWS values.
T = Trace of Precipitation, MM = Missing Value Source: NWS Daily Summary

Daily Weather History Graph

Daily Weather History Graph

Search for Another Location

Airport or City:

Trip Planner

Search our weather history database for the weather conditions in past years. The results will help you decide how hot, cold, wet, or windy it might be!

Date:

Astronomy

May. 27, 2013 Rise Set
Actual Time 4:52 AM AKDT 1:28 AM AKDT
Civil Twilight Sun does not set Sun does not set
Nautical Twilight Sun does not set Sun does not set
Astronomical Twilight Sun does not set Sun does not set
Moon 2:47 AM AKDT (5/27) 8:26 AM AKDT (5/27)
Length of Visible Light 24h 00m
Length of Day
20h 35m
Waning Gibbous, 90% of the Moon is Illuminated
May 27
Waning Gibbous
May 31
Last Quarter
Jun 8
New
Jun 16
First Quarter
Jun 23
Full

Hourly Weather History & Observations

Time (AKDT) Temp. Windchill Dew Point Humidity Pressure Visibility Wind Dir Wind Speed Gust Speed Precip Events Conditions
12:55 AM 32.5 °F 19.1 °F 32.5 °F 100% 29.94 in 10.0 mi NNE 26.5 mph - N/A   Mostly Cloudy
1:55 AM 32.5 °F 19.4 °F 32.4 °F 99% 29.95 in 10.0 mi NNE 25.3 mph - N/A   Mostly Cloudy
2:55 AM 32.0 °F 18.9 °F 32.4 °F 100% 29.96 in 10.0 mi NNE 24.2 mph - N/A   Mostly Cloudy
3:55 AM 32.2 °F 19.7 °F 32.4 °F 100% 29.96 in 10.0 mi NNE 21.9 mph - N/A   Mostly Cloudy
4:55 AM 32.9 °F 20.1 °F 32.7 °F 99% 29.96 in 10.0 mi NNE 24.2 mph - N/A   Mostly Cloudy
5:55 AM 32.5 °F 20.5 °F 32.4 °F 99% 29.96 in 10.0 mi NNE 20.7 mph - N/A   Mostly Cloudy
6:55 AM 32.2 °F 19.1 °F 32.4 °F 100% 29.96 in 10.0 mi NNE 24.2 mph - N/A   Mostly Cloudy
7:24 AM 32.0 °F 18.9 °F 32.0 °F 100% 29.96 in 10.0 mi NNE 24.2 mph - N/A   Mostly Cloudy
7:45 AM 32.0 °F 19.5 °F 32.0 °F 100% 29.97 in 10.0 mi NNE 21.9 mph - N/A   Mostly Cloudy
7:55 AM 32.7 °F 20.1 °F 32.5 °F 99% 29.97 in 10.0 mi NNE 23.0 mph - N/A   Mostly Cloudy
8:55 AM 33.4 °F 21.1 °F 32.7 °F 97% 29.97 in 10.0 mi NNE 23.0 mph - N/A   Mostly Cloudy
9:55 AM 33.6 °F 21.9 °F 32.9 °F 97% 29.97 in 10.0 mi NNE 20.7 mph - N/A   Mostly Cloudy
10:45 AM 33.8 °F 21.9 °F 33.8 °F 100% 29.97 in 10.0 mi NNE 21.9 mph - N/A   Mostly Cloudy
10:55 AM 33.1 °F 20.6 °F 32.9 °F 99% 29.97 in 10.0 mi NNE 23.0 mph - N/A   Mostly Cloudy
11:55 AM 33.6 °F 21.3 °F 33.3 °F 99% 29.97 in 10.0 mi NNE 23.0 mph - N/A   Mostly Cloudy
12:55 PM 35.4 °F 24.3 °F 34.0 °F 94% 29.98 in 10.0 mi NNE 20.7 mph - N/A   Clear
1:55 PM 36.9 °F 25.9 °F 34.0 °F 89% 29.98 in 10.0 mi NNE 21.9 mph - N/A   Clear
2:55 PM 36.5 °F 25.2 °F 34.2 °F 91% 29.97 in 10.0 mi NNE 23.0 mph - N/A   Clear
3:55 PM 36.1 °F 24.2 °F 32.5 °F 87% 29.97 in 10.0 mi NNE 25.3 mph - N/A   Clear
4:55 PM 36.1 °F 24.7 °F 32.0 °F 85% 29.97 in 10.0 mi NNE 23.0 mph - N/A   Clear
5:55 PM 35.2 °F 23.8 °F 32.0 °F 88% 29.98 in 10.0 mi NNE 21.9 mph - N/A   Clear
6:55 PM 35.4 °F 24.3 °F 32.4 °F 89% 29.98 in 10.0 mi NNE 20.7 mph - N/A   Clear
7:55 PM 35.1 °F 23.3 °F 32.7 °F 91% 29.97 in 10.0 mi NNE 23.0 mph - N/A   Clear
8:55 PM 34.3 °F 22.0 °F 32.5 °F 93% 29.96 in 10.0 mi NNE 24.2 mph - N/A   Clear
9:55 PM 34.3 °F 22.6 °F 32.5 °F 93% 29.97 in 10.0 mi NNE 21.9 mph - N/A   Clear
10:55 PM 33.1 °F 20.6 °F 31.8 °F 95% 29.97 in 10.0 mi NNE 23.0 mph - N/A   Clear
11:05 PM 33.8 °F 21.3 °F 32.0 °F 93% 29.97 in 10.0 mi NNE 24.2 mph - N/A Rain Light Rain
11:45 PM 33.8 °F 21.9 °F 32.0 °F 93% 29.98 in 10.0 mi NNE 21.9 mph - N/A   Clear
11:55 PM 32.9 °F 20.7 °F 30.9 °F 92% 29.98 in 10.0 mi NNE 21.9 mph - N/A   Clear